Starlink 5850

operational
NORAD ID: 57049 Int'l Des: 2023-088 Owner: SPXS Country: US Constellation: starlink
LEOCIRCULAR

About Starlink 5850

Description loading...

Live Position

Loading 3D Globe...

Upcoming Passes

Altitude History

Altitude vs Time

uPlot chart will show altitude changes over time

Two-Line Element Set

1 57049U 23088B 25351.84710954 -.00000300 00000-0 -71135-5 0 9997
2 57049 43.0026 192.6019 0001338 267.5768 92.4921 15.02534497138241
Epoch: Dec 17, 2025 • Age: 12 hours

Current Status

Altitude 569.2 km
Velocity 7.58 km/s
Sub-Earth Point -37.25°S, 83.92°W
Launch Date Jun 22, 2023
Age 2.4 years
Type internet

Technical Details

Classification Payload
Mass 305.00 kg
Dry Mass 290.00 kg
Total Mass 305.00 kg
Length 0.20 m
Diameter 2.80 m
Span 9.00 m
Shape Box + pan
Manufacturer SPXS
Bus Type Starlink
Phase Status In Orbit
Owner/State SPXS/US

Large Constellations

Loading constellations...